Location: San Antonio
(29.4240°N, 98.4930°W)
Time: 20:27:02
(UTC-05:00)

A-11 Canister half - Pass Details

Date: 18 July 2024
Orbit: 1523 x 1684 km, 47.3° (Epoch: 17 July)

Event Time Altitude Azimuth Distance (km) Brightness Sun altitude
Exits shadow 04:59:47 18° 191° (S) 3,345 10.3 -20.4°
Maximum altitude 05:06:57 43° 130° (SE) 2,193 9.8 -19.2°
Drops below altitude 10° 05:16:06 10° 63° (ENE) 3,869 12.3 -17.7°
Sets 05:19:23 0° 57° (ENE) 4,836 13.4 -17.1°
